Location: Bishop�s Knoyle
(51.0728°N, 2.1714°W)
Time: 09:27:51
(UTC+00:00)

ATLAS CENTAUR R/B - Pass Details

Date: 22 January 2021
Orbit: 471 x 674 km, 64.6° (Epoch: 24 February)

Event Time Altitude Azimuth Distance (km) Brightness Sun altitude
Rises 05:52:44 0° 183° (S) 2,528 4.8 -19.4°
Reaches altitude 10° 05:55:14 10° 167° (SSE) 1,640 4.0 -19.0°
Maximum altitude 05:57:58 20° 117° (ESE) 1,131 3.8 -18.6°
Drops below altitude 10° 06:00:43 10° 68° (ENE) 1,641 4.6 -18.2°
Sets 06:03:13 0° 52° (NE) 2,532 5.4 -17.8°
